DW2806 Weather Reports


time (UTC)temp
F
wind
direction
speed
knots
gust
knots
rain 1hr
in
rain 24hr
in
rain mn
in
humidity
%
barometer
mb
20260505041559 57 27 0.0 3.5 0.00 0.00 0.00 65 1025.7
20260505040054 57 160 0.0 4.3 0.00 0.00 0.00 64 1025.7
20260505034553 58 230 0.0 1.7 0.00 0.00 0.00 63 1025.7
20260505033053 58 169 0.0 3.5 0.00 0.00 0.00 62 1025.7
20260505031557 58 59 0.0 0.9 0.00 0.00 0.00 61 1025.7
20260505030052 58 19 0.0 0.0 0.00 0.00 0.00 60 1025.7
20260505024554 59 19 0.0 0.0 0.00 0.00 0.00 59 1025.7
20260505023051 60 21 0.0 0.0 0.00 0.00 0.00 57 1025.7
20260505021552 61 19 0.0 6.1 0.00 0.00 0.00 56 1025.7
20260505020059 61 64 0.0 0.0 0.00 0.00 0.00 55 1025.7
20260505014552 61 289 0.9 4.3 0.00 0.00 0.00 55 1025.7
20260505013049 62 135 0.0 5.2 0.00 0.00 0.00 54 1025.7
20260505011551 62 290 0.0 7.8 0.00 0.00 0.00 54 1025.7
20260505010107 63 52 0.0 4.3 0.00 0.00 0.00 52 1025.7
20260505004548 64 258 0.0 0.9 0.00 0.00 0.00 51 1025.7
20260505003054 64 263 0.0 5.2 0.00 0.00 0.00 50 1025.7
20260505001547 65 267 0.0 8.7 0.00 0.00 0.00 49 1025.7
20260505000048 66 314 0.0 1.7 0.00 0.00 0.00 46 1025.7
20260504234546 67 329 0.0 3.5 0.00 0.00 0.00 44 1025.7
20260504233102 68 210 0.0 4.3 0.00 0.00 0.00 41 1025.7
20260504231547 69 265 0.0 4.3 0.00 0.00 0.00 37 1025.7
20260504230053 70 29 0.0 0.0 0.00 0.00 0.00 37 1025.7
20260504224543 71 32 0.0 4.3 0.00 0.00 0.00 37 1025.7
20260504223044 71 320 0.0 3.5 0.00 0.00 0.00 35 1025.7
20260504221542 72 321 0.0 5.2 0.00 0.00 0.00 35 1025.7
20260504220043 72 134 0.9 6.1 0.00 0.00 0.00 34 1025.7
20260504214543 72 273 0.0 6.1 0.00 0.00 0.00 35 1025.7
20260504213041 73 240 2.6 7.0 0.00 0.00 0.00 32 1025.7
20260504211541 73 264 0.9 5.2 0.00 0.00 0.00 32 1025.7
20260504210044 73 170 0.0 7.8 0.00 0.00 0.00 33 1025.7
20260504204547 73 285 0.9 6.1 0.00 0.00 0.00 32 1025.7
20260504203053 73 283 0.0 7.0 0.00 0.00 0.00 31 1025.7
20260504201538 73 266 0.0 7.0 0.00 0.00 0.00 31 1025.7
20260504200037 72 14 0.9 6.1 0.00 0.00 0.00 30 1025.7
20260504194537 73 18 0.0 7.0 0.00 0.00 0.00 30 1025.7
20260504193035 73 284 0.9 10.4 0.00 0.00 0.00 31 1025.7
20260504191534 73 281 1.7 7.0 0.00 0.00 0.00 30 1025.7
20260504190042 73 320 0.0 6.1 0.00 0.00 0.00 31 1025.7
20260504184535 74 271 0.9 7.0 0.00 0.00 0.00 29 1025.7
20260504183034 74 27 0.0 7.0 0.00 0.00 0.00 30 1025.7
20260504181529 73 347 0.9 8.7 0.00 0.00 0.00 30 1025.7
20260504180028 73 341 0.0 4.3 0.00 0.00 0.00 31 1025.7
20260504174526 72 42 5.2 10.4 0.00 0.00 0.00 31 1025.7
20260504173024 72 297 1.7 11.3 0.00 0.00 0.00 32 1025.7
20260504171523 72 32 0.0 8.7 0.00 0.00 0.00 32 1025.7
20260504081531 43 33 0.0 0.0 0.00 0.00 0.00 70 1025.7
20260504050116 36 33 0.0 0.0 0.00 0.00 0.00 86 1025.7